Theta_e
304 305 304 305 304 302 300 299 300 301 302 303 300 299 302 304 296 294 300 303 301 303 306 308 309 310 309 310 311 314 316 317 318 319 318 318 318 319 318 320 321 322 321 323 324 325 325 325 324 323 321 320 322 323 322 321 322 324 325 323 321 320 319 319 318 318 318 317 317 318 317 316 317 317 318 318 318 318 318 318 318 317 316 316 315 315 315
303 302 304 304 303 301 301 300 300 301 301 301 301 301 302 303 301 302 303 303 303 306 307 308 310 313 312 314 317 316 314 314 315 314 315 315 315 316 317 318 319 321 321 322 323 326 326 324 323 321 321 320 319 320 321 321 322 324 323 322 319 318 317 317 317 317 316 317 316 317 316 317 316 316 316 316 317 318 317 316 316 317 317 317 316 315 315
300 303 304 304 302 300 300 299 301 300 302 301 302 302 304 303 303 303 303 302 302 308 312 311 315 316 314 314 312 312 314 313 314 314 313 313 313 314 316 318 319 320 321 322 323 323 323 323 322 321 320 320 320 320 320 321 321 322 320 320 319 317 316 316 316 316 316 316 316 315 316 316 316 316 314 316 317 317 317 317 318 318 318 316 316 316 315
298 301 302 302 302 301 300 301 301 301 300 301 302 299 304 303 300 301 301 299 300 305 311 313 314 314 312 311 312 313 312 310 311 311 311 311 312 313 314 315 317 318 319 320 321 321 321 320 320 319 320 321 319 319 320 319 321 320 319 318 316 316 315 315 315 315 315 315 315 315 315 314 315 315 316 316 316 316 317 317 317 318 317 316 316 316 316
294 301 301 301 301 300 297 300 302 303 303 303 303 304 305 305 305 300 295 299 306 306 310 308 310 311 311 311 310 310 310 310 310 310 310 311 312 314 315 314 315 316 316 317 320 320 320 318 317 319 320 319 319 319 320 320 320 319 318 317 316 315 315 315 314 316 315 314 314 315 315 316 317 317 316 316 316 316 317 318 318 316 315 316 315 314 313
295 300 301 301 298 289 292 305 307 306 304 304 302 302 304 307 307 305 306 306 308 310 308 307 308 308 310 311 312 314 312 311 312 311 312 312 313 316 317 317 315 317 317 318 319 320 321 319 319 320 321 320 320 321 320 319 318 317 315 315 315 314 314 315 315 314 314 314 314 315 316 316 317 316 316 316 317 317 316 316 316 315 315 314 313 312 312
294 300 300 294 287 290 306 308 309 307 307 306 305 306 305 307 308 308 306 305 307 309 310 311 312 312 311 312 312 312 312 314 313 312 312 313 315 316 316 316 316 318 318 319 319 320 318 318 322 321 318 320 320 319 318 316 316 315 315 314 314 315 314 314 314 315 315 315 315 316 316 316 317 315 315 315 315 315 315 314 314 312 312 312 311 311 311
298 294 294 286 289 303 307 309 309 309 308 307 307 304 306 307 307 308 306 307 308 310 311 311 312 311 312 312 312 313 313 315 313 312 312 313 314 314 315 316 317 317 317 319 319 319 320 318 316 316 317 318 317 316 316 315 315 315 314 314 314 315 314 314 315 316 316 316 316 316 315 314 314 313 314 315 314 315 313 312 312 312 311 311 310 310 310
292 293 294 292 302 301 306 305 305 305 304 305 302 294 302 309 309 308 307 308 309 310 311 311 311 312 311 309 310 313 313 313 315 314 313 314 314 315 317 317 318 321 320 318 320 319 319 317 316 317 317 316 316 315 314 314 314 314 314 314 313 314 315 316 316 317 317 316 315 314 313 312 312 313 313 313 313 313 311 310 309 309 310 310 309 309 309
299 293 292 292 292 288 296 307 311 313 312 313 311 304 300 309 310 310 309 308 309 310 311 310 310 311 307 304 307 311 313 314 314 314 313 314 314 314 314 316 317 319 320 319 320 319 318 319 319 319 319 318 316 315 315 314 314 314 313 313 315 316 316 316 317 316 315 313 312 312 312 311 312 313 312 312 312 311 309 308 308 309 309 307 308 308 307
294 293 289 290 288 291 303 307 310 311 311 311 310 302 298 307 310 310 310 309 310 310 310 310 310 306 302 303 308 311 314 314 314 312 312 312 313 313 314 315 315 317 321 321 318 320 319 318 320 321 319 318 315 314 315 315 314 314 315 316 316 316 316 316 314 314 313 313 312 312 311 311 312 310 310 310 310 310 309 309 308 307 307 306 306 307 307
294 293 291 290 293 292 304 309 308 308 311 310 307 292 294 307 310 311 311 310 311 311 312 311 309 305 303 303 309 314 314 314 315 313 311 311 311 312 314 316 319 320 319 318 317 318 318 320 320 319 318 317 317 315 315 315 315 315 316 317 316 316 314 314 313 313 313 313 313 312 310 310 310 309 310 309 310 309 308 307 306 306 306 306 306 305 306
295 292 294 294 295 306 310 309 310 309 311 308 294 290 299 309 311 312 312 312 313 313 312 311 306 309 310 311 315 317 315 314 313 315 315 313 313 313 315 320 314 316 317 317 316 317 319 319 318 319 316 317 316 317 317 316 315 316 317 316 314 313 313 312 311 312 312 312 311 311 310 309 309 309 309 308 307 307 306 306 306 305 305 305 304 303 303
295 297 293 294 297 309 312 311 310 310 306 292 293 305 315 313 312 313 314 313 314 314 313 310 311 312 314 315 315 315 314 314 314 313 315 315 316 319 320 318 319 319 316 321 320 319 320 318 317 318 317 316 315 316 316 316 315 315 314 313 312 311 311 310 311 311 311 311 311 311 310 309 309 308 308 307 306 306 306 304 304 303 303 302 301 301 302
299 295 293 292 289 300 312 310 307 309 297 302 309 311 313 315 315 314 314 316 315 315 312 312 314 313 313 314 314 314 314 315 314 314 315 315 315 317 320 319 318 317 318 319 319 320 318 318 318 317 317 316 316 316 315 314 313 312 311 311 310 310 310 310 310 310 310 311 310 310 309 308 307 306 306 306 305 305 304 303 302 302 301 301 300 299 299
294 294 290 291 299 307 313 309 300 306 308 314 314 312 310 314 315 313 313 316 317 316 314 312 313 313 313 314 315 315 315 316 317 316 317 318 320 319 320 320 320 317 318 318 318 319 318 318 317 317 318 316 315 314 312 313 312 311 310 310 310 310 310 309 309 309 309 308 309 308 307 306 306 305 304 304 303 303 302 301 299 299 298 298 297 296 296
298 296 301 310 313 313 313 313 318 316 318 317 318 317 314 311 313 317 312 314 318 317 316 314 314 312 313 314 314 313 314 315 315 315 316 317 318 319 320 319 319 317 316 319 317 317 317 318 318 317 317 316 313 312 312 311 310 309 310 309 310 309 309 309 308 307 307 306 306 307 306 305 305 303 303 303 301 301 300 299 298 296 295 295 295 295 294
311 312 311 313 312 312 314 315 319 317 316 319 316 316 313 314 316 316 313 315 317 317 318 314 314 313 314 315 313 315 315 313 315 318 319 319 319 318 318 319 319 317 318 317 317 317 317 318 317 317 316 314 311 309 310 310 310 310 310 309 309 308 308 308 307 306 305 304 304 306 306 304 304 303 302 300 299 298 297 296 295 293 293 293 293 293 292
302 296 312 309 310 313 314 313 315 318 318 317 317 316 316 317 317 316 319 316 317 318 318 316 314 314 315 313 313 314 314 314 316 317 317 319 319 319 320 318 316 318 317 317 316 315 313 314 313 312 312 310 310 310 310 310 310 309 308 308 307 307 307 305 305 305 305 303 303 305 305 304 303 303 301 299 298 297 296 294 292 292 292 293 292 291 291
303 300 310 312 313 316 317 315 314 315 316 316 317 318 318 319 320 319 320 321 320 319 317 316 315 314 315 313 313 312 313 314 315 316 317 319 319 320 320 319 318 318 317 315 313 312 310 310 310 310 310 310 310 310 310 310 309 309 308 307 307 306 305 305 304 304 304 300 302 302 303 303 301 301 301 300 298 296 295 292 290 290 291 291 290 291 290
307 309 310 311 312 313 313 314 316 317 317 317 318 318 318 319 317 317 318 318 318 318 317 317 316 315 315 314 314 313 313 315 316 317 318 319 319 319 319 319 317 317 316 313 312 310 309 309 310 310 310 310 311 311 309 309 309 308 307 305 306 306 305 304 303 303 304 303 302 301 301 302 301 301 299 299 298 297 296 294 292 291 291 291 291 291 291
300 302 306 311 301 300 309 313 316 316 319 319 320 320 318 318 316 317 316 316 319 319 319 319 317 315 314 316 316 314 314 315 317 319 318 318 318 318 319 319 318 316 314 312 310 309 309 310 309 309 309 308 308 308 308 308 308 306 305 305 305 304 304 303 301 301 303 302 301 301 300 300 299 300 294 293 295 294 293 292 290 289 289 291 291 291 290
299 307 310 313 311 310 314 315 317 319 319 319 318 318 318 318 318 318 318 316 316 316 318 320 318 316 315 318 318 316 315 317 319 319 318 316 316 317 317 316 315 313 312 310 310 309 309 309 308 308 307 307 307 307 307 307 306 305 304 304 303 303 303 302 300 301 301 302 301 301 300 299 299 297 296 295 289 289 291 291 290 289 289 288 288 289 290
311 312 312 314 311 308 313 316 317 317 319 318 317 318 319 318 318 318 318 317 316 316 317 317 318 318 318 318 317 317 318 320 319 319 319 318 318 317 316 315 313 311 310 309 309 309 309 308 307 307 307 306 307 306 307 306 306 305 304 304 303 302 302 302 301 302 301 301 301 300 299 298 297 294 293 292 293 290 288 289 290 289 289 289 289 289 288
310 313 314 315 315 317 317 317 317 318 318 318 316 318 318 318 317 318 318 317 317 316 315 315 317 319 318 317 317 318 318 317 318 318 318 314 314 315 314 313 311 310 309 310 310 309 309 308 307 307 306 306 307 306 306 305 305 305 304 304 303 302 301 301 301 300 299 300 300 299 297 295 294 293 292 292 291 292 293 289 289 289 289 289 289 288 288
315 315 318 319 318 317 317 314 314 315 317 317 318 317 318 319 318 317 318 317 316 316 315 316 316 318 318 316 316 318 318 317 314 313 315 314 314 314 313 312 311 311 310 310 309 309 309 308 307 306 305 306 306 306 305 305 306 305 304 304 303 301 300 300 300 301 300 300 298 296 294 293 293 293 293 293 292 292 291 291 292 291 290 289 288 288 288
315 316 315 314 313 313 313 311 310 314 315 317 319 318 318 319 317 318 319 320 320 320 318 318 318 317 317 316 316 318 317 315 314 315 314 314 313 313 313 313 312 311 310 309 309 307 305 306 306 306 305 305 306 306 305 305 305 305 304 304 304 294 289 296 301 300 300 298 297 294 292 293 293 292 293 292 292 291 290 290 289 288 290 291 290 288 287
314 314 315 310 309 311 312 315 317 316 315 315 318 317 318 317 316 316 315 315 316 317 318 319 317 317 317 319 319 315 314 314 314 314 314 314 315 314 313 313 312 310 309 308 307 306 306 306 306 305 305 305 305 305 305 305 305 304 303 303 302 302 302 300 300 300 298 296 295 292 292 293 294 293 292 291 290 290 290 288 290 289 289 290 291 288 287
312 313 316 317 321 320 319 319 316 315 316 319 318 317 316 314 314 313 313 314 315 316 315 316 317 317 316 316 315 313 313 314 314 314 315 315 314 313 313 312 311 309 308 306 306 307 307 306 306 305 304 305 305 305 305 305 304 303 302 301 301 301 300 299 298 297 296 294 295 292 290 292 293 292 290 290 288 291 291 291 289 290 289 290 289 289 288
312 314 315 315 315 315 315 313 312 313 313 314 315 314 314 313 312 312 313 315 315 314 316 317 316 315 316 315 314 314 313 314 314 315 314 313 313 312 311 310 309 308 307 306 306 307 306 306 305 304 304 305 304 305 305 304 304 304 303 302 301 299 298 295 295 293 294 293 292 289 291 292 292 292 291 291 291 290 290 289 287 289 288 288 287 287 285
313 315 315 315 315 314 312 312 312 312 312 313 313 312 312 313 312 312 313 314 314 315 316 315 315 316 315 315 315 315 315 316 316 314 314 313 312 311 310 309 307 305 306 306 307 307 306 305 305 304 304 305 304 305 305 304 303 303 303 302 300 288 286 287 289 292 292 291 290 292 292 292 292 291 289 290 290 289 289 289 288 288 288 288 287 286 286
315 315 315 316 314 312 312 313 312 311 312 313 313 312 312 312 311 312 313 313 314 316 316 315 315 315 316 317 318 318 317 316 315 315 313 312 311 310 310 309 309 304 308 307 307 306 306 306 304 304 305 304 304 304 304 304 303 302 302 297 300 299 291 286 290 291 291 292 290 291 291 291 291 290 289 289 288 288 289 288 288 287 287 286 286 286 286
312 311 312 313 312 312 311 312 311 311 313 313 313 313 313 313 313 313 314 314 316 316 316 316 316 317 318 317 316 316 315 314 314 313 312 310 309 309 310 311 311 310 308 307 307 307 306 305 304 305 304 304 304 304 304 304 303 302 301 300 299 297 291 289 288 292 291 289 291 291 292 290 290 290 289 288 288 288 288 288 287 287 287 287 287 287 286
312 311 311 314 314 311 312 312 313 313 313 314 314 314 313 313 314 314 314 315 316 317 316 317 318 319 317 316 315 315 314 313 310 310 310 309 309 309 310 309 310 309 308 308 307 306 307 305 305 304 304 304 304 304 303 303 302 301 300 298 296 293 293 291 292 291 291 291 291 291 291 291 290 288 288 288 288 287 287 287 286 286 287 286 287 287 285
315 315 315 315 316 315 315 314 314 314 314 314 315 315 315 315 314 314 315 316 317 317 318 319 318 317 316 316 315 314 313 312 311 311 311 309 309 309 309 309 308 307 306 306 306 306 306 305 305 304 304 304 303 303 303 302 302 300 299 297 293 293 291 289 291 291 289 291 290 290 290 289 288 286 288 288 288 287 287 287 286 287 286 286 286 286 285
315 314 315 316 315 314 314 314 315 316 315 315 315 315 315 316 316 316 317 317 317 318 319 318 317 316 315 315 314 314 313 313 314 313 311 309 309 309 308 307 306 304 304 304 306 306 305 304 292 293 304 303 303 302 302 301 300 297 296 294 291 291 290 290 291 291 290 290 289 289 289 287 287 287 287 288 288 288 287 287 287 286 286 286 286 285 286
317 317 316 315 317 318 317 316 316 316 316 316 316 316 315 317 317 318 318 317 318 318 318 317 316 315 315 315 315 315 314 315 314 312 310 309 309 308 307 306 305 304 303 303 304 305 304 302 291 289 299 301 301 300 296 285 298 297 296 294 293 291 291 292 291 290 290 290 290 289 288 288 289 289 288 288 287 287 287 286 285 285 285 285 285 286 285
317 316 317 317 318 319 320 318 317 317 317 317 317 315 316 318 317 318 318 318 318 318 317 316 315 315 316 316 315 314 315 316 314 311 310 309 308 307 306 305 304 304 303 305 305 304 303 296 287 296 303 301 300 297 291 284 286 294 294 292 292 292 291 291 290 289 290 290 288 290 289 288 288 288 288 288 287 286 286 286 285 285 285 285 285 285 285
316 317 318 319 319 319 318 319 318 317 317 317 316 317 317 317 318 320 318 317 318 317 316 315 315 315 315 314 313 315 315 314 312 310 309 308 308 307 305 306 306 307 307 307 305 303 298 296 301 303 301 300 298 295 289 286 286 293 292 293 292 291 291 289 289 288 288 289 289 289 289 287 288 287 287 287 287 286 285 284 284 285 285 285 285 284 285
316 316 316 317 317 317 317 316 316 316 317 317 317 317 319 318 319 318 317 316 317 316 315 315 314 313 313 313 314 314 314 313 311 310 309 308 307 307 307 307 308 308 305 295 303 301 295 291 298 303 301 299 298 295 291 289 290 292 293 292 291 290 289 289 289 289 289 290 288 285 287 287 286 286 286 286 286 285 285 285 285 285 285 285 284 284 284
314 316 316 316 316 317 316 317 316 317 317 317 317 319 320 318 317 316 316 316 316 315 315 315 314 313 313 313 314 314 313 311 310 310 309 308 307 306 305 304 306 305 304 305 303 299 296 296 300 301 300 299 297 291 291 287 293 293 292 291 290 290 289 289 289 288 289 287 287 287 287 288 286 286 285 286 285 285 285 285 284 284 285 284 284 284 283
316 317 317 317 316 317 317 318 318 318 318 318 317 321 320 319 318 317 318 317 315 314 314 314 306 315 314 314 315 312 311 310 310 309 309 307 307 306 304 305 305 303 295 293 293 295 298 300 299 295 299 297 293 287 287 291 292 292 291 290 290 288 289 288 288 288 289 288 288 288 287 287 286 286 285 286 285 285 284 284 284 284 284 284 283 283 283
317 317 318 317 317 318 318 318 318 318 318 318 319 318 319 319 318 318 317 316 314 314 314 314 311 308 312 315 313 311 310 310 309 308 308 309 310 309 308 306 304 300 289 297 299 300 300 301 300 299 292 294 291 285 285 292 292 291 290 289 289 288 288 288 288 288 288 288 287 287 287 286 286 285 285 285 285 285 284 284 284 283 283 283 283 283 283
318 318 318 317 317 318 318 317 317 317 316 318 319 319 318 318 317 316 315 314 313 313 313 313 312 313 313 313 311 310 308 308 308 307 307 306 305 306 309 305 303 294 289 297 299 300 300 300 299 291 284 285 284 284 290 291 291 290 289 288 288 288 287 288 287 288 287 287 287 287 286 285 286 285 285 284 284 284 284 283 284 283 282 283 283 282 281
318 317 318 318 318 319 317 316 316 316 315 319 318 318 317 316 316 316 315 314 312 312 310 313 312 312 313 312 312 311 310 310 309 307 306 303 302 303 304 295 297 295 295 293 300 300 300 298 290 284 285 284 284 285 291 290 290 289 289 289 289 288 288 287 287 287 286 286 286 286 286 286 285 285 285 283 282 283 283 282 283 282 282 282 281 281 281
318 317 318 307 318 318 317 317 318 317 317 317 316 314 314 316 315 315 315 314 313 313 314 314 314 314 314 313 312 312 311 310 309 310 310 308 306 306 303 295 299 293 291 291 300 300 296 285 283 284 283 284 284 289 290 289 289 289 289 288 288 287 287 287 286 286 286 286 286 286 286 285 285 285 284 285 283 283 282 280 282 283 282 282 281 280 280
316 316 317 318 318 319 318 318 318 318 317 315 313 313 313 315 315 315 315 314 314 314 314 315 315 315 315 314 312 309 308 307 307 308 309 307 303 299 295 291 290 288 291 298 299 297 290 286 284 283 283 283 285 290 289 288 289 289 288 288 288 287 288 287 287 286 286 286 285 283 282 284 285 284 283 282 283 283 283 282 282 282 282 281 281 280 280
315 316 316 316 317 318 319 318 316 315 315 313 313 314 315 315 315 315 315 315 314 314 314 315 314 315 314 314 313 312 311 308 304 305 306 305 304 300 298 298 295 289 291 289 288 287 284 284 283 283 283 283 288 290 288 288 288 288 288 287 287 287 287 287 286 287 286 284 283 285 285 284 284 284 284 284 284 283 282 282 282 281 281 281 281 281 280
316 315 316 317 317 317 316 314 314 311 314 314 312 314 315 314 314 313 313 314 313 313 313 314 314 314 313 310 312 312 311 310 310 306 306 304 302 300 299 292 287 287 292 295 292 289 284 283 283 283 283 285 289 288 287 288 288 288 288 287 287 287 287 287 287 286 286 285 285 284 285 284 284 284 284 283 283 283 282 282 282 281 280 280 280 280 280
315 316 315 314 315 315 315 314 314 314 314 315 314 316 316 314 312 313 312 312 312 311 312 312 312 312 312 311 311 311 310 310 309 308 304 303 302 301 296 294 294 290 291 294 293 288 283 282 283 283 285 288 288 288 288 287 288 287 287 287 287 287 286 285 283 283 285 285 284 284 284 284 284 281 281 282 283 282 282 281 282 278 274 277 279 280 280
314 312 313 314 314 316 316 315 315 315 316 316 316 316 315 313 311 310 312 312 312 309 310 311 311 312 311 310 310 309 309 308 304 298 302 301 300 294 292 294 293 291 293 292 290 288 287 286 286 285 286 287 287 287 287 287 287 286 285 286 286 286 284 283 283 283 284 284 285 283 283 283 283 283 283 283 282 281 282 280 281 281 281 281 281 281 280
315 315 315 315 315 315 316 316 316 316 317 316 316 315 313 312 312 312 312 300 312 310 311 310 309 310 311 310 308 308 307 305 302 301 298 298 297 296 294 290 293 292 293 293 291 290 288 287 285 284 285 287 286 286 284 284 285 286 286 285 284 285 283 284 283 284 283 282 283 283 282 283 283 282 282 283 282 282 281 281 281 281 280 281 281 280 280
Wind_Speed
4 3 4 2 1 4 4 4 3 4 2 1 2 5 4 4 3 4 4 1 2 4 5 7 7 8 8 7 6 3 3 3 4 4 5 6 7 7 8 8 8 9 9 8 7 7 6 5 6 7 7 7 6 6 6 6 5 5 4 4 4 5 4 5 5 5 6 6 6 7 8 8 9 9 9 10 10 10 10 10 9 11 12 14 14 15 14
5 4 2 1 1 3 2 3 3 2 2 3 3 4 2 4 5 4 2 3 2 3 6 6 6 4 3 4 2 3 4 4 4 5 5 5 6 7 8 8 8 8 8 8 7 6 6 6 6 7 6 7 8 7 6 5 5 4 3 3 3 3 4 4 5 5 6 6 7 7 8 9 9 10 10 10 10 10 12 12 13 13 13 13 13 14 14
5 4 3 2 3 3 2 3 1 2 1 1 2 3 2 2 3 2 3 4 5 4 3 5 4 2 2 2 3 2 0 1 1 3 4 5 5 5 5 5 5 5 6 5 5 5 5 5 5 6 7 7 6 5 4 3 3 4 3 3 3 3 4 4 5 6 6 6 7 9 9 9 10 11 12 12 11 12 12 12 12 12 11 13 12 12 13
5 4 3 3 3 4 4 3 3 4 4 4 4 1 2 3 3 3 3 6 5 7 5 4 3 3 4 3 2 1 1 1 1 2 3 4 4 4 4 3 4 5 5 5 4 4 4 5 5 4 3 4 3 3 2 3 3 2 1 1 2 2 3 4 5 7 7 7 8 9 10 11 13 13 12 12 13 13 12 12 11 10 11 11 11 10 9
2 5 3 3 5 5 8 8 5 5 4 1 1 1 1 2 1 4 3 2 7 7 6 6 6 5 4 3 3 3 3 2 2 3 4 5 3 2 2 1 2 2 3 2 2 1 2 1 1 2 1 1 1 1 2 2 3 1 1 0 1 3 4 5 6 6 7 8 9 10 12 12 11 11 12 12 12 11 11 10 9 9 10 10 9 9 10
3 5 4 4 6 5 0 5 2 2 3 4 5 3 3 3 6 3 5 5 4 5 6 6 7 6 4 3 5 4 3 2 2 2 2 3 3 4 4 3 2 3 3 3 4 5 5 5 5 5 4 4 4 3 3 2 1 1 0 1 1 3 4 6 6 7 8 9 11 11 12 12 11 11 11 10 9 9 8 9 8 9 9 9 9 9 10
2 5 4 5 4 3 5 3 3 1 2 3 5 3 2 3 5 5 5 3 3 4 4 2 4 5 6 5 5 5 4 2 2 3 4 5 5 6 6 6 6 7 7 7 7 6 5 7 5 5 5 4 4 4 3 3 2 1 1 2 2 3 5 6 7 8 10 11 11 11 11 11 10 10 9 9 9 8 8 8 8 8 9 9 10 10 11
1 2 3 2 1 6 4 4 4 3 1 2 3 7 7 7 7 6 7 5 4 5 5 5 4 5 6 5 4 4 5 3 3 4 5 6 6 6 7 8 8 7 8 7 7 7 6 6 5 5 6 4 3 4 3 3 2 1 2 3 4 5 6 8 9 9 9 10 10 9 9 9 9 9 9 9 9 7 8 8 8 9 9 10 12 12 12
2 2 2 3 4 6 6 3 5 6 3 6 5 3 2 6 6 7 6 6 5 5 6 5 5 5 5 5 6 5 6 6 4 4 6 5 7 7 7 8 8 7 7 8 8 7 6 5 5 5 4 4 3 3 2 2 2 2 2 4 6 6 7 7 8 8 8 8 8 8 9 9 10 10 9 9 8 7 9 9 10 11 11 11 12 12 13
4 3 3 3 3 2 2 5 5 2 3 3 1 2 6 6 4 6 6 7 8 7 7 7 7 6 4 7 6 8 7 7 7 5 6 6 7 7 9 8 8 7 7 6 6 5 6 5 5 4 3 2 1 1 1 2 2 4 5 6 6 6 6 7 7 6 6 7 8 8 9 9 9 8 8 8 8 8 10 11 11 11 11 12 11 11 12
3 3 3 2 2 0 4 5 5 4 1 1 1 5 5 7 4 5 6 7 9 9 8 9 8 7 6 4 6 9 9 8 7 7 6 6 6 7 7 6 7 6 5 4 4 5 3 4 4 3 2 1 2 2 2 3 4 5 5 5 5 5 6 6 5 5 6 7 7 8 8 8 8 9 9 8 9 9 10 11 11 11 11 11 11 11 11
3 3 3 2 0 1 4 5 5 5 2 2 5 5 2 7 3 3 5 7 9 8 8 9 8 7 7 2 8 9 9 8 6 5 6 7 7 7 6 5 4 4 3 4 3 3 3 4 3 3 1 1 2 3 4 4 3 4 4 4 5 4 5 5 5 6 5 6 6 7 8 8 8 9 8 9 10 10 10 10 11 11 11 11 12 11 12
4 2 3 2 2 4 6 6 7 5 4 3 4 3 4 5 4 3 4 6 8 9 9 8 7 4 7 8 8 7 8 8 8 5 5 5 4 5 5 4 2 2 3 0 1 2 3 2 1 1 1 1 3 2 3 3 3 4 4 4 5 5 4 5 6 6 6 6 7 6 7 8 8 9 8 9 10 10 10 10 10 11 11 11 11 12 12
4 4 4 3 2 5 7 6 7 7 6 3 2 5 3 5 5 4 4 6 8 9 8 8 3 8 8 8 6 8 8 8 7 7 7 6 4 4 4 4 1 1 1 2 1 2 3 1 1 1 0 1 1 2 2 5 5 5 5 5 5 5 6 6 7 6 6 6 5 5 6 8 9 9 9 10 10 10 9 11 12 12 12 12 12 12 12
1 2 4 2 4 3 8 11 6 2 3 3 6 6 5 3 4 5 5 5 7 7 8 6 6 8 8 6 6 8 8 7 7 7 7 6 5 5 4 4 3 1 2 1 1 1 1 1 0 0 0 0 2 4 6 6 6 6 6 5 6 6 6 6 6 6 5 5 6 6 7 8 9 9 9 10 11 10 11 12 12 13 13 13 13 13 13
3 3 3 2 2 8 12 12 3 9 6 4 2 1 6 4 3 5 5 5 6 8 7 8 7 7 7 6 5 5 8 7 6 6 5 4 3 3 2 1 2 1 1 0 1 2 1 1 0 1 1 2 5 8 8 6 6 6 6 6 6 5 5 5 6 5 7 7 7 8 9 9 9 9 10 10 10 10 11 12 12 13 12 13 13 13 13
4 2 2 6 5 7 11 9 5 3 5 3 1 3 3 5 4 3 5 6 7 8 7 7 8 7 7 7 6 6 8 8 7 7 6 4 4 2 2 2 2 0 1 1 1 3 3 3 2 2 3 7 9 9 7 6 6 6 5 5 5 5 5 5 6 7 8 8 8 8 9 9 9 9 10 11 11 11 11 12 12 13 13 13 13 13 13
3 4 2 2 2 3 7 9 3 1 3 3 1 1 3 2 3 5 4 7 7 8 7 7 7 7 8 7 7 6 7 8 7 5 4 3 2 2 1 2 2 2 3 3 4 6 6 6 5 6 8 9 10 8 7 6 6 5 5 5 5 5 5 6 7 8 8 9 9 7 8 8 8 8 9 10 11 11 11 12 12 12 13 13 12 13 13
1 2 8 8 7 5 6 8 9 6 4 2 3 3 3 1 2 4 2 3 7 8 9 9 8 8 8 8 7 7 7 7 7 6 5 2 2 2 4 5 4 4 5 6 7 8 9 8 8 9 10 9 8 7 7 6 6 6 6 5 5 6 7 7 7 8 7 8 8 7 8 8 8 9 9 10 11 11 11 12 12 12 12 12 12 13 13
7 3 4 4 5 5 4 5 6 9 10 10 8 5 2 1 1 1 3 3 5 7 8 8 7 8 9 9 8 8 8 7 7 6 4 5 7 6 6 6 6 7 7 8 9 9 9 8 8 9 9 8 7 7 6 6 5 5 5 6 6 7 7 7 7 7 6 6 7 8 8 8 9 8 9 10 10 10 11 11 12 11 12 11 12 13 14
8 7 4 4 5 6 8 7 7 4 3 6 9 9 8 6 5 4 4 4 4 6 6 8 8 8 9 9 9 9 8 7 6 5 7 8 8 8 8 7 7 7 9 10 10 10 9 8 9 9 9 8 7 7 6 5 5 5 5 6 6 7 6 6 7 7 6 7 7 8 8 8 8 8 9 9 9 9 10 10 10 10 11 10 12 13 13
5 5 5 9 4 4 9 10 8 7 5 4 5 5 7 8 9 7 7 6 3 4 4 6 8 9 9 8 8 9 8 8 7 9 9 9 9 9 8 8 9 10 10 11 11 10 9 8 8 8 8 7 6 6 6 5 6 6 6 5 5 6 6 6 8 7 6 7 8 8 8 8 9 9 4 6 6 7 8 10 8 8 8 9 11 12 13
4 4 3 5 5 4 3 5 5 4 4 5 7 7 7 7 8 8 8 8 6 6 5 5 7 8 9 9 8 7 7 7 9 9 10 10 9 9 10 11 10 10 11 11 11 10 8 8 8 8 7 6 6 5 6 6 6 7 7 5 5 5 6 6 6 7 7 7 8 8 8 9 9 9 9 3 10 7 7 5 6 7 6 6 7 9 12
5 1 2 4 5 5 5 6 5 4 4 4 5 4 5 7 8 8 8 8 9 8 7 6 6 7 7 8 8 8 8 10 11 10 9 10 10 10 9 10 11 12 11 11 10 10 8 8 8 7 7 6 5 5 5 6 6 6 7 6 6 6 6 6 5 6 7 7 8 8 8 9 8 9 8 8 5 8 10 4 3 4 5 6 6 8 13
4 1 3 5 4 4 5 4 4 3 3 2 2 4 5 6 8 8 8 7 7 9 8 8 7 6 7 8 8 9 10 11 11 11 11 10 10 10 10 11 12 12 11 9 9 8 8 8 8 7 6 5 5 5 5 6 7 7 7 7 6 6 7 7 6 6 7 7 8 8 9 9 8 8 7 8 7 8 4 9 6 4 6 5 3 9 14
2 3 3 4 4 4 4 4 4 4 4 4 3 3 4 4 6 8 7 7 6 7 7 9 8 6 6 8 8 10 11 12 12 11 10 10 10 10 11 11 11 10 10 9 9 9 9 9 7 6 6 5 5 5 6 6 6 6 5 5 5 6 6 7 7 6 7 7 7 8 8 8 7 7 7 7 8 7 7 8 7 3 3 7 8 13 16
3 4 6 7 7 6 7 5 4 8 6 4 2 4 5 6 7 6 5 4 5 4 5 6 7 7 7 8 10 11 12 12 11 9 10 11 11 10 10 10 11 11 11 10 9 9 9 8 7 6 6 5 5 5 5 6 5 5 5 5 3 7 5 4 6 6 7 6 7 7 7 7 6 7 7 7 7 6 7 7 8 7 9 8 9 16 16
7 7 9 9 9 9 9 5 5 7 6 6 4 5 6 6 7 7 7 7 6 5 5 6 8 9 9 10 11 11 12 13 11 10 10 10 9 9 10 11 11 11 10 10 10 9 8 7 7 7 6 5 5 5 5 5 5 4 4 4 4 6 5 5 7 6 6 6 6 6 6 6 6 6 6 6 6 6 6 5 8 8 8 8 10 13 15
9 9 8 1 2 6 6 7 6 7 6 4 4 4 6 7 8 9 9 8 8 8 6 7 7 9 10 11 11 12 12 11 11 11 10 10 10 10 11 11 10 10 10 10 9 8 7 7 7 7 6 5 4 4 4 4 4 4 4 5 5 5 5 7 7 6 5 5 5 6 5 6 5 5 4 4 4 6 7 7 8 8 8 9 11 11 13
10 10 9 6 4 7 9 9 9 9 8 7 7 8 8 9 9 9 9 9 8 8 7 8 9 9 10 11 11 12 12 12 11 10 10 10 10 11 11 11 10 9 9 8 8 8 7 6 6 6 6 4 4 4 4 3 3 3 3 4 5 5 5 7 6 6 5 5 5 4 4 4 4 5 5 6 6 6 7 7 7 8 9 9 11 12 14
11 10 11 9 7 7 10 9 9 9 8 8 8 8 9 9 10 9 9 8 8 7 8 9 10 10 11 11 10 10 10 10 10 10 10 10 10 11 11 12 10 9 8 8 8 7 7 6 6 6 5 5 4 4 3 2 2 1 1 2 5 8 5 6 2 5 4 5 4 4 5 4 4 4 5 6 6 6 7 7 7 8 9 10 11 11 13
11 10 10 9 9 9 8 7 8 9 9 9 9 9 10 10 9 9 9 8 8 8 9 10 11 11 10 10 9 10 10 10 10 10 10 10 10 10 10 10 8 8 8 9 8 7 7 6 7 6 5 5 4 3 2 2 1 2 2 2 1 3 6 7 3 3 4 4 4 3 4 4 5 5 5 6 6 6 6 7 7 8 9 10 10 10 12
12 10 9 10 10 11 11 10 10 10 10 10 10 9 9 9 8 9 8 8 8 8 9 10 10 10 10 10 10 10 10 10 10 10 10 10 10 10 9 7 7 8 8 8 8 7 6 7 7 6 5 5 4 4 3 2 1 2 3 3 3 3 3 4 3 2 4 2 4 4 4 4 5 5 5 5 5 5 6 7 7 7 8 9 9 9 10
14 14 13 12 12 12 13 12 10 10 10 10 10 9 9 9 8 8 8 8 9 9 9 9 10 10 10 10 10 10 11 10 9 9 10 11 11 10 8 7 8 9 8 9 8 6 6 7 7 6 6 5 4 4 3 2 2 2 3 3 3 3 3 2 2 3 3 3 3 2 3 4 4 5 4 4 5 5 5 6 6 7 7 8 9 9 10
13 13 12 11 13 13 13 12 11 11 10 10 9 9 9 9 9 8 6 8 9 9 9 9 10 10 11 11 11 11 11 11 10 11 11 11 11 10 9 9 9 9 9 8 7 6 7 7 7 7 6 5 5 4 3 3 2 2 2 2 3 3 3 1 3 3 3 3 3 3 4 4 4 4 3 4 4 4 5 6 6 7 7 8 8 9 9
12 11 9 8 11 13 13 12 10 11 10 10 10 10 10 10 10 8 8 9 7 8 9 10 10 11 11 11 11 11 11 10 10 11 11 11 11 10 10 11 11 10 10 9 6 7 8 7 9 7 5 5 5 5 4 2 2 2 3 2 1 2 2 2 3 3 3 2 3 3 3 2 2 3 4 3 4 4 5 5 6 6 7 7 8 9 9
11 10 9 9 8 9 10 9 8 8 8 8 9 10 11 11 12 10 8 8 8 8 9 9 10 11 12 12 11 11 11 10 9 10 10 10 10 11 11 11 11 11 10 9 8 8 7 8 9 7 5 5 5 5 5 6 1 2 1 1 2 2 2 2 2 2 2 2 2 2 1 0 1 2 2 3 4 5 5 5 5 6 6 7 7 8 9
12 11 10 8 7 7 8 7 7 7 7 7 8 9 10 10 10 10 9 8 8 9 9 10 11 11 11 10 11 12 10 9 10 11 11 12 12 12 11 11 10 9 9 7 10 9 7 10 10 7 5 5 5 6 5 4 6 2 2 2 2 2 2 2 2 2 1 2 1 1 2 2 2 2 3 3 4 4 5 5 5 5 5 6 7 8 8
11 9 7 6 5 6 6 6 6 6 7 9 8 8 8 9 9 9 8 8 8 9 10 10 10 10 11 12 12 11 10 10 11 12 11 12 12 12 11 10 9 8 6 10 11 9 11 11 8 6 5 6 7 7 6 3 7 1 2 2 2 2 3 3 3 3 2 1 2 3 2 2 2 2 3 3 4 4 4 4 5 5 5 5 6 7 7
11 10 10 9 8 7 7 7 7 7 8 8 8 8 8 8 8 8 8 8 8 10 10 10 11 11 12 13 13 11 10 11 11 12 12 12 11 10 9 7 6 7 10 13 10 9 11 11 8 6 6 6 6 6 6 3 5 2 2 3 2 3 3 2 2 2 2 1 3 2 0 2 2 2 2 3 3 3 4 4 4 4 4 5 5 6 6
12 11 10 11 10 9 9 8 8 8 8 8 7 7 7 8 8 8 9 9 9 10 11 11 12 11 13 14 13 11 11 11 11 12 12 12 11 11 10 9 7 9 10 8 9 11 12 9 7 7 6 6 6 7 6 6 5 3 2 3 2 3 3 2 2 1 1 1 1 1 1 0 1 0 1 2 3 3 3 3 4 4 5 5 5 5 6
12 12 12 11 11 10 10 9 8 8 7 7 7 7 8 8 9 9 8 8 9 10 10 11 12 12 13 13 11 11 11 11 12 12 13 12 12 10 10 8 10 8 12 14 13 12 10 8 7 6 7 6 7 5 4 6 3 4 3 3 3 3 3 3 2 2 1 1 1 1 1 0 1 1 1 1 2 3 3 3 3 4 4 4 5 5 5
11 11 11 11 11 11 10 10 10 10 9 8 8 7 8 8 7 7 8 8 9 10 10 10 10 8 11 12 12 11 10 11 11 11 10 8 7 6 7 9 10 11 14 12 12 10 9 7 7 6 8 8 8 9 7 4 4 4 4 4 4 3 3 2 2 2 2 1 1 1 1 1 1 1 1 2 2 2 3 3 3 4 4 5 5 5 5
10 10 10 11 11 11 10 10 10 10 10 9 8 8 9 8 8 8 9 9 10 10 11 11 12 12 12 12 12 10 10 10 10 10 10 8 6 4 4 10 10 12 14 11 10 9 9 8 7 10 12 12 14 11 6 4 4 4 4 4 4 4 4 4 3 2 2 2 2 1 2 1 0 1 1 2 2 2 2 3 3 4 4 4 4 5 5
9 9 10 10 11 10 10 11 12 13 12 9 9 8 8 8 8 9 9 10 11 11 11 11 13 12 11 11 11 11 10 11 11 12 11 9 9 9 8 10 12 13 11 12 10 9 8 7 12 14 12 14 11 9 5 5 5 5 5 5 4 4 4 3 3 3 3 2 2 1 1 1 1 1 1 2 1 1 2 3 3 3 3 4 4 5 5
9 9 9 10 11 11 11 12 11 12 10 10 9 8 8 8 9 9 9 10 11 11 12 12 12 13 12 12 10 9 10 9 9 10 9 9 10 10 11 13 11 12 14 12 9 9 7 14 17 14 15 13 10 7 5 5 5 5 5 5 5 4 4 4 4 4 3 3 3 2 2 2 1 1 1 1 2 1 2 1 3 2 3 4 4 4 5
8 8 9 10 10 10 10 9 10 11 11 10 10 8 8 9 9 8 9 10 11 12 12 12 12 12 12 13 12 11 10 8 7 7 6 5 8 10 12 13 14 16 14 10 9 9 10 12 13 13 14 13 10 6 6 6 6 5 6 5 5 5 5 5 4 4 4 3 3 2 2 0 1 2 2 2 2 1 1 1 2 3 3 3 3 3 4
9 9 9 9 10 9 9 9 10 11 12 12 12 9 9 9 9 8 9 9 10 10 11 10 10 10 11 12 12 11 12 12 10 8 7 7 8 10 11 10 12 16 12 10 11 12 17 17 15 15 14 12 7 6 7 6 6 6 6 6 5 5 5 5 5 5 4 5 5 4 4 3 2 1 1 1 0 0 1 1 1 2 3 3 3 4 4
8 8 7 8 9 10 10 10 11 11 11 12 12 9 10 10 9 9 9 9 10 10 10 10 10 10 10 10 10 8 7 9 9 10 11 10 10 10 10 12 16 16 11 10 10 10 12 15 16 15 12 10 6 7 6 6 6 6 6 6 6 5 5 5 5 5 4 5 4 3 3 2 2 2 2 1 1 1 1 1 1 2 3 4 3 3 3
6 6 7 7 8 9 10 10 10 11 11 11 11 9 9 10 9 9 9 9 10 10 9 9 8 8 8 8 8 7 7 6 4 9 11 11 12 11 12 14 14 14 12 11 12 11 12 14 13 12 11 7 7 7 6 6 7 7 6 7 6 6 4 4 4 3 4 4 4 4 3 2 1 2 1 1 0 1 0 1 1 3 2 4 3 3 3
6 7 7 8 8 9 11 12 11 11 11 10 11 10 10 10 10 10 9 10 9 10 9 9 8 8 8 8 8 7 8 7 8 10 10 10 10 12 14 13 14 13 11 11 11 11 12 11 11 12 10 8 7 7 7 7 7 7 7 7 7 6 6 6 6 6 5 4 4 4 3 3 3 3 3 2 2 2 1 1 1 1 1 2 2 2 3
7 6 6 6 7 7 8 10 10 10 9 10 10 10 10 10 9 9 9 12 10 11 10 10 9 9 8 9 9 9 8 9 9 9 9 10 11 11 12 14 13 12 11 11 11 12 11 11 12 13 11 9 8 7 7 8 7 8 8 7 7 7 7 7 6 6 5 5 4 4 4 3 3 3 3 3 2 2 2 2 1 1 1 2 2 2 3
Wind_Direction
67 52 83 40 30 50 74 81 94 96 106 224 5 53 47 324 330 9 53 127 199 136 128 133 144 158 157 157 146 135 136 169 181 191 212 217 218 214 216 216 215 221 222 222 224 223 222 230 238 249 258 258 245 244 246 249 240 216 200 215 236 241 239 256 285 298 294 297 301 302 292 292 290 287 286 286 285 289 290 291 291 296 299 303 304 302 300
120 115 120 167 189 128 174 107 92 63 56 63 56 86 82 12 22 6 37 149 79 114 134 131 104 103 122 121 134 177 206 221 241 244 240 243 235 225 228 225 223 222 227 224 218 215 227 239 254 264 265 264 262 252 246 238 216 204 193 203 236 243 262 285 289 293 302 300 296 300 294 291 296 300 302 303 301 294 297 302 305 305 305 302 300 300 301
128 113 149 190 219 210 199 144 179 166 135 117 80 129 148 240 134 71 136 155 177 121 93 113 102 92 116 147 179 196 338 264 265 263 257 258 262 255 241 234 229 223 223 222 215 223 237 258 267 272 271 275 278 278 272 243 216 177 184 188 222 268 294 301 307 301 294 298 300 297 306 303 304 305 313 316 308 301 302 304 304 304 305 305 305 306 307
150 152 174 176 217 241 261 236 211 207 210 205 159 180 122 297 68 126 179 203 172 130 143 133 135 167 186 173 161 144 180 162 121 295 289 281 279 275 266 235 213 214 219 216 226 238 260 264 263 269 283 283 267 268 229 220 162 164 155 211 281 287 303 307 295 299 306 305 302 306 307 313 316 319 315 310 308 308 309 310 310 311 306 306 310 311 311
137 129 191 197 229 242 235 216 197 207 200 331 77 151 196 254 294 194 225 51 66 117 152 166 165 175 150 158 166 141 115 58 358 327 319 312 315 323 307 269 221 209 225 197 166 180 216 104 49 64 57 45 46 61 117 142 117 121 147 220 287 301 309 300 301 307 300 300 308 314 320 319 317 309 309 308 313 319 317 316 310 306 311 311 312 317 316
133 148 175 217 236 238 97 67 45 310 245 213 236 208 196 183 226 349 5 45 99 145 171 191 159 176 152 118 88 49 43 90 85 38 24 11 43 55 67 81 96 103 106 103 101 97 86 82 72 68 62 68 78 83 95 107 98 115 283 183 297 310 307 303 305 302 308 318 319 319 316 313 312 313 316 324 326 320 316 313 312 312 313 314 315 318 318
152 153 192 224 245 250 82 124 88 277 278 279 265 288 252 211 219 242 239 190 171 173 175 129 110 116 113 112 125 126 103 74 64 89 91 87 71 76 87 89 90 96 100 104 104 114 103 92 103 108 102 109 116 118 122 99 80 33 355 320 301 298 295 299 307 318 323 322 318 316 317 321 323 323 329 330 325 323 321 319 318 320 317 317 319 314 315
89 212 209 234 223 64 133 111 105 91 230 234 258 265 235 216 213 213 226 192 161 163 159 139 127 125 126 138 137 125 129 136 131 127 111 106 109 102 98 104 108 114 112 112 109 103 114 118 98 89 92 103 101 88 62 54 51 11 327 304 294 293 308 319 324 327 319 317 321 329 333 333 328 331 334 329 326 328 326 320 320 316 315 318 318 318 319
242 236 220 257 16 267 173 174 176 190 188 181 212 268 180 157 197 205 212 192 168 163 153 146 144 138 163 199 154 148 136 135 121 102 105 112 108 111 109 107 104 97 103 101 94 96 86 80 88 81 85 72 59 52 52 41 343 325 309 296 299 322 327 324 322 322 331 337 345 342 338 330 333 336 332 330 330 334 325 324 320 319 321 320 323 322 324
262 258 244 226 221 256 135 78 97 146 22 6 341 262 253 162 180 197 209 201 176 170 157 153 153 171 204 234 174 145 138 139 134 120 119 120 117 117 115 113 114 102 89 93 95 94 100 90 85 95 87 87 65 12 345 338 322 305 309 323 347 339 324 328 339 355 360 357 351 344 335 338 340 335 332 330 330 333 326 324 321 323 325 325 326 326 325
206 239 263 253 264 327 40 101 119 133 82 196 177 254 241 123 153 177 214 202 178 175 166 156 160 194 229 244 105 135 144 151 151 149 132 122 120 118 114 108 102 106 100 85 102 101 101 101 80 68 54 43 266 316 325 323 319 326 337 343 331 340 350 8 12 17 10 4 354 345 342 346 341 335 333 332 330 330 327 323 326 329 332 327 328 323 324
214 254 250 267 180 243 123 116 141 138 155 193 235 256 132 108 139 157 201 194 174 170 164 165 184 204 236 225 109 131 153 149 145 144 135 136 143 135 126 114 100 98 121 149 146 115 103 93 86 72 33 303 329 302 335 330 333 342 358 357 5 23 33 26 22 14 16 10 2 352 347 345 339 334 331 332 335 333 332 331 335 332 330 328 324 325 326
142 219 268 296 220 156 130 134 133 133 158 219 236 246 86 91 103 160 182 185 170 161 163 178 195 199 52 71 106 133 143 145 148 146 133 138 143 137 140 115 128 182 156 171 73 98 101 88 73 62 347 336 304 354 335 330 5 30 41 47 43 43 29 27 20 18 18 12 358 352 349 343 337 333 340 341 340 338 336 338 334 329 330 326 325 327 330
246 215 252 263 327 85 125 113 132 145 174 207 239 71 71 91 112 131 172 163 165 168 174 180 254 97 92 79 116 154 158 158 155 162 160 159 145 100 89 99 158 200 187 122 156 131 94 90 111 172 236 286 323 14 19 54 57 59 63 58 46 36 25 26 24 18 17 9 352 349 346 345 343 344 349 347 344 340 339 336 331 331 332 331 332 332 333
258 242 253 266 260 137 156 128 129 196 233 27 75 112 86 83 107 142 153 166 161 178 173 178 115 130 126 119 115 152 163 163 163 167 170 175 181 169 167 175 143 231 238 218 139 102 96 71 20 30 105 146 102 89 82 75 71 67 61 49 42 39 29 27 23 9 6 4 359 356 355 353 352 350 352 348 343 342 340 335 334 336 337 338 337 336 335
259 197 215 234 57 124 160 163 187 187 232 37 82 187 148 131 159 151 150 161 170 182 177 166 146 145 146 142 141 146 167 174 164 169 168 167 162 163 148 129 114 110 283 272 109 93 71 77 93 128 176 133 96 94 88 83 78 74 63 51 41 40 36 26 12 4 1 3 7 6 1 358 354 351 353 348 343 345 342 339 342 341 342 341 341 338 340
235 307 15 70 81 147 180 205 22 107 150 95 50 346 64 154 159 182 164 155 172 187 187 177 166 158 160 148 154 164 168 178 184 181 181 184 180 175 149 123 117 248 321 45 63 83 69 75 69 87 94 102 100 92 86 84 77 69 63 54 43 32 23 22 11 7 9 8 4 12 1 357 353 351 352 348 345 346 345 347 348 346 344 346 343 343 344
235 277 254 94 144 165 190 215 207 120 142 155 240 246 194 163 122 179 183 154 171 181 189 187 178 186 165 162 158 161 170 178 173 171 158 156 159 169 156 136 101 78 90 92 94 87 78 77 80 79 88 97 97 94 91 84 75 67 54 49 43 28 23 21 21 11 13 9 360 7 3 354 354 354 353 351 350 349 351 355 355 351 348 348 347 348 343
194 236 171 201 205 192 202 216 213 214 219 187 205 216 250 133 151 186 197 187 174 179 184 200 192 181 175 176 171 169 175 180 175 181 185 153 110 80 87 88 118 117 110 102 98 95 91 87 89 90 91 90 91 92 87 80 70 58 49 38 36 30 22 18 21 16 11 15 351 359 359 354 352 351 358 355 355 356 360 1 359 354 352 349 352 350 343
223 279 132 183 191 191 195 211 209 217 221 222 216 221 224 185 108 257 180 170 175 173 189 198 200 183 181 183 178 179 179 182 180 176 155 127 107 93 96 106 107 108 108 107 108 105 98 96 93 93 90 87 84 83 80 72 64 61 53 36 30 28 25 24 19 8 6 10 350 356 355 353 350 352 359 356 357 1 5 7 359 357 353 356 358 350 345
234 236 206 171 165 206 211 211 229 237 215 202 207 214 217 214 215 199 187 199 189 188 193 189 193 185 182 187 186 186 176 175 171 151 126 114 111 114 109 106 110 107 114 113 110 107 105 104 101 96 93 90 84 76 69 61 49 46 43 41 35 32 25 27 16 4 0 2 360 350 349 352 354 356 357 349 358 356 20 17 8 1 354 359 358 352 347
239 246 227 181 213 225 207 198 200 205 196 198 180 184 204 208 210 195 185 175 175 185 187 190 192 190 177 180 184 190 182 179 152 131 123 119 112 107 108 109 107 108 111 116 115 112 111 112 108 104 99 91 83 74 61 48 44 38 32 28 32 32 24 29 14 358 357 359 355 350 353 353 348 352 55 118 23 10 356 37 38 19 6 359 350 348 348
258 229 183 178 245 291 49 131 141 150 158 183 194 198 203 200 201 188 183 170 170 184 185 195 197 189 178 170 174 180 173 150 139 135 131 125 121 121 120 117 116 115 117 119 120 119 118 118 113 106 98 90 81 67 59 50 41 35 28 21 24 24 20 22 23 349 352 356 354 352 353 353 348 349 343 81 135 102 76 67 31 11 1 340 330 341 350
263 292 229 174 210 243 149 145 148 161 165 200 209 206 198 190 186 180 186 182 179 178 174 181 197 187 173 165 175 172 144 133 131 130 124 121 125 125 127 127 127 127 129 131 129 126 125 123 114 107 99 89 77 67 57 52 47 41 37 28 27 20 21 6 6 3 347 358 352 353 352 351 349 347 347 347 355 116 116 81 48 8 311 297 320 342 0
263 158 170 176 187 130 115 126 136 131 144 206 216 195 189 182 172 173 178 175 180 167 167 166 173 184 174 167 172 162 146 137 134 126 124 125 125 131 133 134 137 137 138 134 130 130 128 120 114 110 103 91 78 67 58 54 50 47 44 44 34 25 13 1 350 359 352 357 354 353 353 351 349 350 350 350 350 345 58 119 125 187 252 265 344 23 8
116 134 124 138 154 138 132 155 159 159 151 163 156 159 152 180 156 169 169 163 160 166 171 162 162 169 174 167 167 153 140 136 129 136 138 133 134 136 142 144 142 137 134 133 130 129 127 125 121 116 105 93 77 65 61 57 56 54 50 50 48 30 18 357 346 355 355 356 356 354 356 348 352 350 356 357 351 348 347 347 355 339 258 133 70 29 17
168 141 152 152 180 179 183 214 172 164 153 156 148 134 149 143 152 161 135 131 125 133 144 149 151 153 163 163 156 148 139 132 146 157 139 139 143 143 143 143 140 135 134 132 130 126 126 131 126 114 101 92 84 75 65 64 61 59 51 29 39 124 146 336 354 357 356 355 359 359 354 351 357 355 2 358 354 351 351 352 350 348 347 8 40 55 17
191 189 196 198 195 189 182 172 125 151 157 162 159 149 141 146 156 160 159 154 151 140 135 141 147 153 152 147 139 129 132 149 155 144 139 141 137 137 140 137 136 136 134 133 131 140 147 134 123 112 102 93 86 74 72 71 66 57 39 29 18 9 16 14 355 356 356 357 10 4 357 355 358 8 2 357 355 348 350 360 354 348 349 5 359 30 6
198 196 200 255 61 108 126 138 144 160 154 150 163 152 160 168 173 177 175 175 160 159 158 157 163 166 158 153 150 147 153 154 148 146 138 134 137 136 134 135 136 136 136 139 142 147 144 134 125 114 105 96 87 80 76 74 61 49 36 28 7 20 16 7 351 351 359 360 30 4 357 351 6 8 3 1 355 350 355 3 358 349 353 2 4 359 3
199 192 187 173 150 151 153 170 177 174 172 170 174 183 187 185 185 188 177 164 164 174 158 152 161 161 157 157 158 155 157 154 147 140 135 139 138 138 140 138 136 137 141 147 147 148 144 138 131 118 109 101 92 90 84 75 74 64 60 47 46 33 19 4 354 352 6 7 27 348 8 6 21 7 8 359 359 360 358 5 355 353 356 8 8 3 1
188 180 187 173 163 177 190 179 178 179 177 177 184 185 187 196 192 184 177 165 175 167 156 166 164 160 160 159 156 155 148 140 137 137 139 140 142 145 148 152 154 159 162 154 148 149 143 133 121 111 109 107 102 93 86 76 67 91 47 56 103 88 45 317 318 5 6 12 22 16 19 4 21 12 14 1 4 3 1 357 0 359 4 6 6 9 6
166 171 175 180 188 189 189 181 180 180 180 177 183 189 184 190 186 184 174 178 180 167 163 164 165 163 158 148 140 137 136 135 134 135 137 142 144 151 158 167 163 156 148 144 145 148 142 137 122 117 119 112 109 101 99 64 23 13 33 6 32 132 72 342 317 68 9 35 23 25 32 5 18 11 17 9 8 4 359 2 4 3 6 6 9 10 8
176 176 188 194 197 202 202 193 194 185 181 183 193 194 189 194 196 190 185 179 163 165 168 170 166 159 150 145 145 144 141 138 139 141 145 148 152 154 162 164 154 146 140 143 144 144 145 135 122 122 120 117 113 109 95 83 6 34 19 8 16 62 91 88 360 338 67 31 50 19 21 23 15 18 24 12 11 2 5 2 8 2 8 8 10 7 9
195 200 201 191 192 195 201 198 199 196 190 195 196 196 195 195 199 195 180 175 174 170 177 171 162 157 154 153 153 147 144 144 151 158 158 156 155 156 151 149 144 137 136 138 145 145 133 126 128 128 124 122 118 107 96 84 54 55 32 15 19 18 28 60 103 46 51 46 55 58 33 36 31 18 11 15 14 12 6 3 10 0 7 8 9 0 5
214 219 222 211 202 206 205 207 203 203 196 193 192 197 197 198 198 196 164 179 182 184 174 165 160 162 159 161 159 159 165 172 168 161 161 158 156 155 152 147 139 136 139 147 146 133 128 130 132 128 124 129 123 118 105 80 51 51 65 66 41 32 61 64 54 49 49 60 32 38 33 30 38 30 15 6 12 1 14 15 7 6 4 7 2 1 359
208 214 213 213 211 209 207 210 205 205 201 203 197 196 194 194 198 183 168 191 187 176 166 165 162 163 166 170 171 173 178 177 164 158 157 157 154 152 155 157 153 153 152 149 142 133 134 109 81 100 134 125 124 114 86 61 91 65 52 25 86 93 82 80 86 84 56 45 54 38 51 54 40 39 1 3 12 14 9 14 10 7 6 4 359 360 357
205 210 210 207 204 208 207 206 202 198 200 202 203 199 198 193 195 194 190 179 174 171 171 165 166 172 180 182 178 176 178 170 158 158 154 152 153 157 162 164 165 163 162 162 155 150 136 125 124 139 144 136 121 106 79 337 289 109 140 99 84 86 93 87 62 71 81 69 40 72 32 275 38 37 23 9 17 20 12 10 13 4 6 3 0 360 1
199 207 210 208 194 192 201 204 201 200 197 198 199 200 198 194 195 191 184 174 171 171 172 176 182 186 180 175 177 177 172 158 154 150 150 154 159 161 165 169 174 171 182 173 149 149 133 132 153 167 150 133 126 121 90 32 323 291 99 72 90 102 94 94 95 82 70 72 36 47 42 28 15 16 21 13 26 23 20 10 8 358 355 358 3 7 4
196 200 205 202 194 193 189 176 183 195 191 195 194 194 194 197 187 181 179 177 172 169 174 183 182 180 176 178 179 171 160 155 152 151 154 159 163 169 174 179 182 185 173 133 145 136 132 146 164 161 144 124 124 119 125 138 273 263 99 116 109 107 109 105 90 93 75 62 26 18 48 32 23 20 8 21 20 14 38 25 353 351 349 358 4 8 5
197 197 200 195 199 195 193 190 189 192 196 201 197 189 173 175 176 184 184 179 172 173 180 178 178 181 182 182 177 166 159 155 155 155 157 158 163 168 164 156 121 112 115 131 136 134 142 159 169 148 141 140 142 134 137 165 250 148 133 125 121 112 98 102 126 120 130 135 129 214 196 85 39 10 18 355 23 21 10 359 360 356 357 2 4 4 4
202 201 199 200 200 193 195 188 187 189 189 191 197 186 172 181 176 179 179 178 171 177 183 182 183 186 185 182 176 159 151 154 158 159 156 156 166 172 174 170 150 137 147 148 137 134 146 166 159 149 141 147 135 135 136 190 217 130 127 120 132 117 123 117 111 140 123 106 78 10 47 10 126 124 27 7 27 15 14 357 357 357 1 0 3 360 360
198 199 195 195 196 195 195 193 180 174 180 186 184 172 172 176 178 186 178 169 165 177 183 188 191 188 181 175 154 142 149 155 160 160 165 169 175 178 186 164 149 143 110 105 118 134 155 161 159 152 147 139 132 128 141 168 161 135 138 129 126 122 120 132 148 127 110 93 77 81 109 38 56 56 32 9 34 23 11 353 351 4 356 356 355 360 353
194 194 193 195 195 192 189 184 183 184 179 180 180 179 172 176 182 175 164 165 170 176 183 184 170 170 170 158 149 149 152 156 159 160 166 173 178 191 199 146 150 131 137 143 147 151 160 159 160 150 136 139 134 145 202 187 139 149 136 133 125 133 138 145 136 143 157 142 120 105 68 37 54 51 17 14 31 35 10 357 357 2 352 351 356 355 354
193 195 195 195 195 190 188 188 189 186 188 181 174 168 169 171 178 177 171 171 174 177 181 176 173 175 169 161 156 155 155 159 160 163 163 158 146 90 106 142 144 144 157 152 161 161 159 159 146 117 116 121 137 172 180 145 153 144 143 141 145 147 145 154 158 156 134 147 174 147 107 98 15 50 26 23 10 29 24 358 358 358 352 344 352 350 353
192 194 196 196 191 181 188 189 188 189 195 169 159 166 173 177 180 181 177 175 176 175 179 176 172 172 169 166 171 171 168 167 167 164 170 171 177 175 146 123 135 150 162 163 161 160 155 142 125 133 137 142 155 191 172 151 158 146 145 145 152 154 160 157 148 141 141 149 149 134 130 127 90 66 53 67 349 352 25 359 356 343 346 347 348 351 350
195 198 195 192 192 193 194 192 189 190 176 158 160 166 178 182 181 180 182 181 175 177 179 176 175 175 173 171 167 156 152 159 167 178 180 179 189 169 151 148 156 157 159 169 161 159 130 123 136 141 143 149 163 189 154 153 152 152 151 148 150 158 165 156 157 157 156 166 164 167 162 156 143 102 26 9 53 357 64 329 298 339 358 352 347 354 338
191 191 190 193 195 194 189 189 180 173 163 169 176 178 180 184 183 184 184 186 181 180 181 180 180 179 173 167 159 154 155 154 156 170 156 110 87 111 133 135 135 142 157 171 160 150 133 142 143 143 149 159 181 161 152 163 162 156 155 153 158 169 167 161 162 157 160 152 124 97 74 7 163 153 151 213 200 232 23 326 349 353 347 340 328 329 336
189 192 193 193 191 178 172 170 172 178 181 189 196 188 170 178 181 185 179 182 180 180 178 179 177 175 177 176 174 171 165 160 162 171 168 150 137 133 148 160 154 158 152 100 99 115 135 142 142 148 153 165 185 158 160 164 162 162 159 159 169 165 172 167 171 165 157 140 170 189 181 174 180 189 198 247 115 207 27 339 327 346 349 337 342 341 339
198 198 190 186 183 173 177 181 186 188 194 196 198 184 164 169 175 176 175 175 174 174 177 176 174 171 176 177 176 174 175 178 179 170 162 153 147 151 146 135 145 151 150 148 139 139 142 140 145 149 157 175 165 157 166 166 169 162 164 164 171 169 174 172 171 166 160 166 177 166 163 161 186 190 187 203 237 164 180 266 313 355 11 341 322 327 325
186 183 184 185 185 186 187 187 195 197 198 194 196 176 158 165 175 180 176 177 177 176 178 175 177 173 175 170 177 169 162 145 119 132 142 151 149 145 143 153 159 164 158 147 143 137 140 141 142 152 164 167 160 163 166 166 163 168 163 161 168 172 155 120 106 123 158 163 168 165 165 178 153 75 290 253 104 300 289 315 318 102 163 256 283 311 326
185 195 202 197 199 199 196 198 199 197 196 189 189 167 163 184 187 173 175 175 172 177 184 176 177 174 175 171 171 164 155 143 129 133 142 147 144 142 149 155 157 161 153 148 143 143 151 161 161 165 171 169 158 164 165 170 167 161 164 171 169 164 149 166 175 174 179 171 170 169 176 175 169 192 214 184 186 221 210 228 250 273 255 317 318 319 321
200 203 204 200 204 202 205 209 207 200 196 187 182 170 178 188 182 175 174 174 180 177 180 171 177 177 178 173 169 163 159 143 143 145 145 141 142 146 146 146 155 155 154 156 151 152 158 160 160 170 172 165 161 159 153 158 166 168 171 164 167 168 170 177 173 173 160 168 187 171 174 195 174 188 206 202 201 209 213 231 247 256 250 282 308 310 303